TimeCST,TemperatureF,Dew PointF,Humidity,Sea Level PressureIn,VisibilityMPH,Wind Direction,Wind SpeedMPH,Gust SpeedMPH,PrecipitationIn,Events,Conditions,WindDirDegrees,DateUTC
12:55 AM,1.0,-4.0,79,30.15,10.0,Calm,Calm,-,N/A,,Clear,0,2012-12-08 06:55:00
1:55 AM,1.0,-4.0,79,30.14,10.0,Calm,Calm,-,N/A,,Clear,0,2012-12-08 07:55:00
2:55 AM,-0.0,-4.0,83,30.16,10.0,Calm,Calm,-,N/A,,Clear,0,2012-12-08 08:55:00
3:55 AM,-0.0,-4.0,83,30.15,10.0,Calm,Calm,-,N/A,,Clear,0,2012-12-08 09:55:00
4:55 AM,-0.0,-5.1,79,30.14,10.0,Calm,Calm,-,N/A,,Clear,0,2012-12-08 10:55:00
5:55 AM,-0.0,-5.1,79,30.14,10.0,Calm,Calm,-,N/A,,Clear,0,2012-12-08 11:55:00
6:55 AM,-0.0,-4.0,83,30.14,10.0,Calm,Calm,-,N/A,,Partly Cloudy,0,2012-12-08 12:55:00
7:55 AM,7.0,3.0,84,30.14,10.0,ESE,6.9,-,N/A,,Mostly Cloudy,110,2012-12-08 13:55:00
8:55 AM,8.1,3.9,83,30.14,10.0,East,5.8,-,N/A,,Mostly Cloudy,100,2012-12-08 14:55:00
9:55 AM,10.0,6.1,84,30.14,10.0,ESE,6.9,-,N/A,,Overcast,120,2012-12-08 15:55:00
10:55 AM,12.9,8.1,81,30.13,10.0,ESE,6.9,-,N/A,,Overcast,120,2012-12-08 16:55:00
11:55 AM,15.1,9.0,77,30.12,2.5,ESE,5.8,-,0.00,Snow,Light Snow,110,2012-12-08 17:55:00
11:59 AM,15.8,8.6,73,30.03,1.8,ESE,4.6,-,0.00,Snow,Light Snow,110,2012-12-08 17:59:00
12:15 PM,15.8,10.4,79,30.03,0.8,East,4.6,-,0.00,Snow,Light Snow,90,2012-12-08 18:15:00
12:50 PM,15.8,12.2,86,30.02,1.0,East,5.8,-,0.02,Snow,Light Snow,90,2012-12-08 18:50:00
12:55 PM,16.0,10.9,81,30.11,1.0,East,6.9,-,0.02,Snow,Light Snow,90,2012-12-08 18:55:00
1:35 PM,17.6,12.2,79,30.01,1.5,East,8.1,-,0.00,Snow,Light Snow,90,2012-12-08 19:35:00
1:50 PM,17.6,12.2,79,30.00,2.5,East,9.2,-,0.01,Snow,Light Snow,100,2012-12-08 19:50:00
1:55 PM,17.1,10.9,77,30.10,2.0,East,8.1,-,0.01,Snow,Light Snow,90,2012-12-08 19:55:00
2:00 PM,17.6,10.4,73,30.00,1.5,East,6.9,-,0.00,Snow,Light Snow,100,2012-12-08 20:00:00
2:08 PM,17.6,12.2,79,30.00,3.0,East,6.9,-,0.00,Snow,Light Snow,90,2012-12-08 20:08:00
2:55 PM,17.1,12.0,81,30.09,2.0,East,6.9,-,0.01,Snow,Light Snow,80,2012-12-08 20:55:00
3:04 PM,17.6,12.2,79,30.00,4.0,East,8.1,-,0.00,Snow,Light Snow,100,2012-12-08 21:04:00
3:15 PM,17.6,12.2,79,30.00,2.0,ESE,8.1,-,0.00,Snow,Light Snow,110,2012-12-08 21:15:00
3:22 PM,17.6,12.2,79,30.01,1.0,East,6.9,-,0.00,Snow,Light Snow,100,2012-12-08 21:22:00
3:55 PM,17.1,12.9,84,30.10,1.0,East,5.8,-,0.00,Snow,Light Snow,100,2012-12-08 21:55:00
4:09 PM,17.6,12.2,79,30.01,2.0,East,6.9,-,0.01,Snow,Light Snow,100,2012-12-08 22:09:00
4:36 PM,17.6,12.2,79,30.02,4.0,East,6.9,-,0.01,Snow,Light Snow,100,2012-12-08 22:36:00
4:50 PM,17.6,12.2,79,30.02,2.5,East,6.9,-,0.01,Snow,Light Snow,100,2012-12-08 22:50:00
4:55 PM,17.1,12.9,84,30.12,2.5,East,4.6,-,0.01,Snow,Light Snow,100,2012-12-08 22:55:00
5:08 PM,17.6,12.2,79,30.02,2.0,East,5.8,-,0.00,Snow,Light Snow,90,2012-12-08 23:08:00
5:55 PM,17.1,14.0,88,30.12,2.5,East,4.6,-,0.01,Snow,Light Snow,100,2012-12-08 23:55:00
6:08 PM,17.6,14.0,86,30.03,3.0,East,4.6,-,0.00,Snow,Light Snow,80,2012-12-09 00:08:00
6:55 PM,18.0,14.0,84,30.13,3.0,East,3.5,-,0.00,Snow,Light Snow,90,2012-12-09 00:55:00
7:18 PM,17.6,14.0,86,30.04,2.5,East,4.6,-,0.01,Snow,Light Snow,80,2012-12-09 01:18:00
7:55 PM,18.0,14.0,84,30.13,3.0,NE,3.5,-,0.01,Snow,Light Snow,50,2012-12-09 01:55:00
8:55 PM,18.0,14.0,84,30.14,5.0,NE,4.6,-,0.00,Snow,Light Snow,50,2012-12-09 02:55:00
9:08 PM,17.6,15.8,93,30.06,4.0,NE,4.6,-,0.01,Snow,Light Snow,50,2012-12-09 03:08:00
9:55 PM,18.0,15.1,88,30.16,9.0,NNE,5.8,-,0.01,Snow,Light Snow,30,2012-12-09 03:55:00
10:55 PM,18.0,14.0,84,30.17,4.0,NNE,6.9,-,0.00,Snow,Light Snow,30,2012-12-09 04:55:00
11:04 PM,17.6,14.0,86,30.09,4.0,NNE,8.1,-,0.00,Snow,Light Snow,20,2012-12-09 05:04:00
11:21 PM,17.6,14.0,86,30.09,4.0,NNE,8.1,-,0.00,Snow,Light Snow,30,2012-12-09 05:21:00
11:48 PM,17.6,14.0,86,30.10,4.0,NNE,9.2,-,0.00,Snow,Light Snow,20,2012-12-09 05:48:00
11:55 PM,17.1,12.9,84,30.18,3.0,NNE,8.1,-,0.00,Snow,Light Snow,30,2012-12-09 05:55:00